Fort Myers, FL

12:02 PM EST on January 18, 2018 (GMT -0500)
Page

Weather History for KFMY - May, 2012

Change the Weather History Date:

Wednesday, May 30, 2012

  Actual Average Record
Temperature  
Mean Temperature 85 °F 81 °F  
Max Temperature 91 °F 91 °F 97 °F (1937)
Min Temperature 78 °F 72 °F 59 °F (1941)
Degree Days  
Heating Degree Days 0 0  
Month to date heating degree days 0 0  
Since 1 July heating degree days 129 287  
Cooling Degree Days 20 16  
Month to date cooling degree days 491 419  
Year to date cooling degree days 1421 1049  
Growing Degree Days 34 (Base 50)    
Moisture  
Dew Point 71 °F    
Average Humidity 66    
Maximum Humidity 79    
Minimum Humidity 50    
Precipitation  
Precipitation T in 0.15 in 3.84 in (1930)
Month to date precipitation 5.95 2.50  
Year to date precipitation 9.98 11.65  
Sea Level Pressure  
Sea Level Pressure 29.91 in    
Wind  
Wind Speed 9 mph (West)    
Max Wind Speed 18 mph    
Max Gust Speed 23 mph    
Visibility 10 miles    
Events      
T = Trace of Precipitation, MM = Missing Value Source: NWS Daily Summary

Daily Weather History Graph

Daily Weather History Graph

Search for Another Location

Airport or City:

Trip Planner

Search our weather history database for the weather conditions in past years. The results will help you decide how hot, cold, wet, or windy it might be!

Date:

Astronomy

May. 30, 2012 Rise Set
Actual Time 6:34 AM EDT 8:15 PM EDT
Civil Twilight 6:08 AM EDT 8:41 PM EDT
Nautical Twilight 5:37 AM EDT 9:12 PM EDT
Astronomical Twilight 5:05 AM EDT 9:45 PM EDT
Moon 3:17 PM EDT (5/30) 2:30 AM EDT (5/30)
Length of Visible Light 14h 32m
Length of Day
13h 41m
Waxing Gibbous, 70% of the Moon is Illuminated
May 30
Waxing Gibbous
Jun 4
Full
Jun 11
Last Quarter
Jun 19
New
Jun 26
First Quarter

Hourly Weather History & Observations

Time (EDT) Temp. Heat Index Dew Point Humidity Pressure Visibility Wind Dir Wind Speed Gust Speed Precip Events Conditions
12:53 AM 80.1 °F 83.8 °F 72.0 °F 76% 29.94 in 10.0 mi SW 3.5 mph - N/A   Clear
1:53 AM 79.0 °F - 72.0 °F 79% 29.93 in 10.0 mi Calm Calm - N/A   Clear
2:53 AM 78.1 °F - 71.1 °F 79% 29.91 in 10.0 mi SW 3.5 mph - N/A   Clear
3:53 AM 79.0 °F - 72.0 °F 79% 29.89 in 10.0 mi West 5.8 mph - N/A   Clear
4:53 AM 79.0 °F - 72.0 °F 79% 29.89 in 10.0 mi SW 3.5 mph - N/A   Clear
5:53 AM 78.1 °F - 72.0 °F 81% 29.90 in 10.0 mi SW 3.5 mph - N/A   Partly Cloudy
6:53 AM 78.1 °F - 72.0 °F 81% 29.91 in 10.0 mi WSW 4.6 mph - N/A   Clear
7:53 AM 81.0 °F 85.8 °F 73.0 °F 77% 29.93 in 10.0 mi West 9.2 mph - N/A   Clear
8:53 AM 84.0 °F 89.6 °F 72.0 °F 67% 29.94 in 10.0 mi West 10.4 mph - N/A   Scattered Clouds
9:53 AM 86.0 °F 91.5 °F 71.1 °F 61% 29.94 in 10.0 mi West 10.4 mph - N/A   Scattered Clouds
10:53 AM 86.0 °F 92.2 °F 72.0 °F 63% 29.94 in 10.0 mi West 13.8 mph - 0.00 in   Scattered Clouds
11:53 AM 86.0 °F 90.7 °F 70.0 °F 59% 29.94 in 10.0 mi WNW 15.0 mph 23.0 mph N/A   Scattered Clouds
12:53 PM 88.0 °F 94.7 °F 72.0 °F 59% 29.93 in 10.0 mi WNW 8.1 mph - N/A   Partly Cloudy
1:53 PM 90.0 °F 94.5 °F 69.1 °F 50% 29.91 in 10.0 mi West 11.5 mph - N/A   Clear
2:53 PM 90.0 °F 93.6 °F 68.0 °F 48% 29.90 in 10.0 mi WSW 13.8 mph - N/A   Clear
3:53 PM 90.0 °F 94.5 °F 69.1 °F 50% 29.87 in 10.0 mi West 13.8 mph - N/A   Clear
4:53 PM 89.1 °F 93.7 °F 69.1 °F 52% 29.86 in 10.0 mi West 12.7 mph - N/A   Clear
5:53 PM 88.0 °F 90.7 °F 66.9 °F 49% 29.85 in 10.0 mi West 12.7 mph - N/A   Clear
6:53 PM 86.0 °F 89.4 °F 68.0 °F 55% 29.86 in 10.0 mi WNW 13.8 mph - N/A   Clear
7:53 PM 82.9 °F 86.5 °F 69.1 °F 63% 29.88 in 10.0 mi West 12.7 mph - N/A   Clear
8:53 PM 82.0 °F 86.3 °F 71.1 °F 69% 29.89 in 10.0 mi West 10.4 mph - N/A   Clear
9:53 PM 81.0 °F 84.9 °F 71.1 °F 72% 29.91 in 10.0 mi West 6.9 mph - N/A   Clear
10:53 PM 80.1 °F 83.6 °F 71.1 °F 74% 29.92 in 10.0 mi WSW 4.6 mph - N/A   Clear
11:53 PM 80.1 °F 83.6 °F 71.1 °F 74% 29.92 in 10.0 mi WNW 3.5 mph - N/A   Clear